Location: Detroit
(42.3310°N, 83.0460°W)
Time: 05:04:26
(UTC-05:00)

N. Korean satellite - Visible Passes

Search period start: 29 November 2022 00:00
Search period end: 09 December 2022 00:00
Orbit: 421 x 454 km, 97.3° (Epoch: 28 November)

Date Brightness Start Highest point End Pass type
(mag) Time Alt. Az. Time Alt. Az. Time Alt. Az.
29 Nov 9.7 04:54:28 10° ENE 04:56:17 14° E 04:58:05 10° SE visible
29 Nov 7.1 06:25:49 10° N 06:28:54 32° WNW 06:31:58 10° SW visible
30 Nov 6.6 05:46:52 10° NNE 05:50:18 71° ESE 05:53:40 10° S visible
30 Nov 9.5 17:49:52 10° SW 17:52:22 19° W 17:54:55 10° NW visible
01 Dec 9.1 05:08:47 10° NE 05:11:26 21° E 05:14:02 10° SE visible
01 Dec 7.6 06:41:11 10° NNW 06:43:50 21° WNW 06:46:29 10° WSW visible
02 Dec 6.2 06:01:51 10° N 06:05:15 70° WNW 06:08:36 10° SSW visible
02 Dec 9.8 18:05:48 10° WSW 18:07:24 13° W 18:09:02 10° WNW visible
03 Dec 8.2 05:23:18 10° NNE 05:26:23 31° E 05:29:27 10° SSE visible
03 Dec 8.1 06:56:41 10° NNW 06:58:37 14° WNW 07:00:32 10° WSW visible
04 Dec 10.0 04:46:46 10° E 04:47:17 10° E 04:47:47 10° E visible
04 Dec 6.7 06:16:47 10° N 06:20:01 42° WNW 06:23:13 10° SW visible
05 Dec 7.2 05:37:51 10° NNE 05:41:11 51° E 05:44:27 10° S visible
05 Dec 9.0 17:40:15 10° SSW 17:43:07 26° W 17:46:02 10° NW visible
06 Dec 9.5 04:59:57 10° NE 05:02:05 16° E 05:04:11 10° SE visible
06 Dec 7.3 06:31:42 10° NNW 06:34:37 27° WNW 06:37:31 10° SW visible
07 Dec 6.3 05:52:24 10° NNE 05:55:48 84° E 05:59:08 10° S visible
07 Dec 9.6 17:55:28 10° SW 17:57:47 17° W 18:00:07 10° NW visible
08 Dec 8.8 05:13:56 10° NE 05:16:42 23° E 05:19:27 10° SSE visible
08 Dec 7.8 06:46:38 10° NNW 06:49:03 19° WNW 06:51:27 10° WSW visible
